CAPE
0 0 0 0 0 0 0 0 0 0 0 0 4 9 17 23 21 19 13 5 14 9
0 0 0 0 0 0 0 0 0 0 0 0 0 12 11 10 12 12 11 1 21 1
0 0 0 0 0 0 0 0 0 0 0 0 0 11 14 13 5 11 14 1 20 29
0 0 0 0 0 0 0 0 0 0 3 7 10 14 10 14 8 0 0 3 10 29
0 0 0 0 0 0 0 0 0 0 1 2 2 0 4 0 0 0 0 8 13 17
0 0 0 0 0 0 0 0 0 0 0 1 4 0 0 0 0 0 0 1 15 20
0 0 0 2 0 0 0 1 3 2 5 11 2 0 0 0 0 0 0 12 23 23
0 0 0 0 0 0 0 2 3 6 6 1 0 0 0 0 0 0 9 17 5 1
0 0 0 0 0 0 2 0 0 7 11 2 0 0 0 0 0 0 6 5 9 6
0 0 0 0 0 0 1 1 0 5 13 0 2 0 0 0 0 0 2 3 6 6
0 0 0 0 0 0 0 0 3 5 14 8 8 0 0 0 0 1 1 2 7 3
0 0 0 0 0 0 0 1 2 3 0 6 22 0 0 0 0 0 2 5 2 12
0 0 0 0 0 0 0 0 0 0 0 13 30 0 0 0 0 0 0 0 1 4
0 0 0 0 0 0 0 0 0 4 17 12 0 0 0 0 0 0 0 4 4 8
CIN
-0 -0 -0 -0 -0 -0 -0 -0 -0 -0 -0 -0 -2 -5 -5 -2 -2 -2 -4 -11 -7 -7
-0 -0 -0 -0 -0 -0 -0 -0 -0 -0 -0 -0 -0 -2 -6 -6 -7 -5 -7 -16 -4 -11
-0 -0 -0 -0 -0 -0 -0 -0 -0 -0 -0 -0 -0 -2 -4 -3 -7 -6 -3 -10 -8 -5
-0 -0 -0 -0 -0 -0 -0 -0 -0 -0 -1 -0 -1 -3 -5 -2 -4 -0 -0 -4 -4 -4
-0 -0 -0 -0 -0 -0 -0 -0 -0 -0 -1 -1 -3 -0 -9 -0 -0 -0 -0 -5 -9 -9
-0 -0 -0 -0 -0 -0 -0 -0 -0 -0 -0 -0 -2 -0 -0 -0 -0 -0 -0 -4 -5 -7
-0 -0 -0 -0 -0 -0 -0 -1 -1 -1 -1 -3 -7 -0 -0 -0 -0 -0 -0 -3 -12 -6
-0 -0 -0 -0 -0 -0 -0 -1 -1 -1 -1 -5 -0 -0 -0 -0 -0 -8 -4 -4 -7 -1
-0 -0 -0 -0 -0 -0 -1 -0 -0 -2 -1 -21 -0 -0 -0 -0 -0 -0 -1 -5 -11 -14
-0 -0 -0 -0 -0 -0 -1 -3 -0 -3 -2 -4 -14 -0 -0 -0 -0 -0 -15 -8 -4 -3
-0 -0 -0 -0 -0 -0 -0 -0 -3 -3 -2 -21 -15 -0 -0 -0 -0 -2 -10 -13 -7 -8
-0 -0 -0 -0 -0 -0 -0 -1 -4 -3 -0 -8 -14 -0 -0 -0 -0 -0 -6 -3 -5 -1
-0 -0 -0 -0 -0 -0 -0 -0 -0 -0 -2 -16 -6 -0 -0 -0 -0 -0 -0 -1 -5 -1
-0 -0 -0 -0 -0 -0 -0 -0 -0 -16 -18 -42 -0 -0 -0 -0 -0 -0 -0 -0 -0 -1
Wind_Speed
24 25 25 26 27 27 30 29 32 32 29 28 27 25 24 24 27 25 26 24 24 26
24 24 25 26 26 28 28 30 30 29 28 26 25 23 24 25 26 26 24 26 27 30
23 25 25 25 25 26 28 27 28 29 27 25 21 21 22 24 27 25 26 26 27 31
24 25 24 25 25 25 25 29 29 27 26 25 26 27 27 29 31 35 35 30 30 32
23 23 24 24 25 26 28 29 29 28 30 29 30 29 30 33 35 37 37 34 34 34
23 24 25 24 24 26 29 30 31 30 29 30 28 30 33 35 38 38 36 35 33 34
25 24 22 23 25 26 25 27 29 29 29 30 30 31 34 38 38 37 33 34 34 32
22 23 23 22 21 24 24 27 28 28 28 28 31 30 32 35 37 36 35 34 33 34
22 23 23 22 22 23 24 27 26 26 27 27 28 24 26 31 36 36 37 36 36 36
22 22 23 24 23 24 25 25 25 25 24 24 25 21 23 27 29 32 35 38 38 37
23 24 25 25 24 27 28 27 26 24 23 22 22 20 22 25 26 30 34 36 37 38
24 25 26 26 28 27 28 25 24 26 25 19 21 20 22 25 28 31 37 37 41 36
23 24 26 23 25 26 24 23 22 21 20 18 24 23 24 27 32 35 35 34 31 32
24 24 23 26 26 22 21 19 16 18 18 26 28 26 28 33 35 38 38 36 34 32
Wind_Direction
359 356 356 355 353 350 345 345 340 339 344 347 348 352 353 352 349 352 349 352 350 347
3 2 358 357 356 353 352 349 347 348 348 351 353 356 353 349 349 347 350 347 346 341
4 3 1 1 2 1 355 356 353 351 354 357 1 357 354 351 348 348 346 348 342 336
1 3 6 4 6 8 5 356 356 358 360 0 360 358 355 347 344 336 337 343 339 334
5 5 3 3 6 2 360 357 1 3 357 358 359 356 356 345 338 334 334 338 333 331
2 2 1 2 5 360 357 355 355 359 1 0 4 2 353 344 335 333 332 335 337 333
359 2 3 3 2 359 2 0 360 1 2 4 6 1 355 345 339 335 337 337 336 338
2 3 2 3 5 360 1 0 1 2 4 6 1 1 360 354 346 339 339 340 340 337
2 2 3 5 2 0 360 358 2 2 3 4 3 6 6 1 353 343 336 338 338 336
2 3 2 0 1 358 358 360 1 0 2 3 3 4 3 2 1 356 346 338 337 337
1 0 358 357 0 357 355 358 359 0 1 1 1 5 5 4 2 355 350 343 339 337
359 357 357 358 355 356 354 1 3 3 2 1 359 4 6 5 0 356 348 345 337 339
359 356 355 359 360 358 1 2 5 5 4 360 3 13 9 5 360 356 353 352 352 349
358 357 356 353 356 4 5 5 3 3 1 11 15 14 11 5 2 358 355 356 355 356